Skip Page Navigation
NASA JPL Caltech
NASA Logo - Jet Propulsion Laboratory + View the NASA Portal
+ Near-Earth Object (NEO) Program
Search JPL
JPL Home Earth Solar System Stars & Galaxies Technology
JPL Solar System Dynamics
BODIES ORBITS EPHEMERIDES TOOLS PHYSICAL DATA DISCOVERY FAQ SITE MAP
JPL Small-Body Database Browser
Search: [ help ]  
1620 Geographos (1951 RA)
Classification: Apollo [NEO, PHA]          SPK-ID: 2001620
Ephemeris | Orbit Diagram | Orbital Elements | Physical Parameters | Discovery Circumstances | Close-Approach Data ]

[ hide orbit diagram ]
Orbit Diagram
Note: Make sure you have Java enabled on your browser to see the applet. This applet is provided as a 3D orbit visualization tool. The applet was implemented using 2-body methods, and hence should not be used for determining accurate long-term trajectories (over several years or decades) or planetary encounter circumstances. For accurate long-term ephemerides, please instead use our Horizons system.
Orbit Viewer

Additional Notes: the orbits shown in the applet are color coded. The planets are white lines, and the asteroid/comet is a blue line. The bright white line indicates the portion of the orbit that is above the ecliptic plane, and the darker portion is below the ecliptic plane. Likewise for the asteroid/comet orbit, the light blue indicates the portion above the ecliptic plane, and the dark blue the portion below the ecliptic plane.

Orbit Viewer applet originally written and kindly provided by Osamu Ajiki (AstroArts), and further modified by Ron Baalke (JPL).


Orbital Elements at Epoch 2456400.5 (2013-Apr-18.0) TDB
Reference: JPL 319 (heliocentric ecliptic J2000)
 Element Value Uncertainty (1-sigma)   Units 
e .3355126898707659 1.1936e-08  
a 1.245602220135112 4.897e-10 AU
q .8276868687485827 1.5118e-08 AU
i 13.33578138856701 2.8344e-06 deg
node 337.2326859800279 2.8464e-06 deg
peri 276.8450417985006 4.1385e-06 deg
M 191.410998667007 4.3191e-06 deg
tp 2456638.290349172718
(2013-Dec-11.79034917)
6.2297e-06 JED
period 507.7705249175449
1.39
2.9944e-07
8.198e-10
d
yr
n .708981680373155 4.1809e-10 deg/d
Q 1.663517571521641 6.54e-10 AU
  Orbit Determination Parameters
   # obs. used (total)      2945  
   # delay obs. used      3  
   # Doppler obs. used      4  
   data-arc span      22475 days (61.53 yr)  
   first obs. used      1951-08-31  
   last obs. used      2013-03-13  
   planetary ephem.      DE405  
   SB-pert. ephem.      SB405-CPV-2  
   condition code      0  
   fit RMS      .56736  
   data source      ORB  
   producer      Otto Matic  
   solution date      2013-Apr-29 15:37:29  

Additional Information
 Earth MOID = .0304863 AU 
 T_jup = 5.074 
[ show covariance matrix ]

Ephemeris | Orbit Diagram | Orbital Elements | Physical Parameters | Discovery Circumstances | Close-Approach Data ]

Physical Parameter Table
Parameter Symbol Value Units Sigma Reference Notes
absolute magnitude H 15.60 mag n/a IRAS-A-FPA-3-RDR-IMPS-V6.0 IRAS observations used: 2
diameter diameter 2.56 km 0.15 Hudson & Ostro, Icarus 193 (2008) 20-38  
extent extent 5.0x2.0x2.1 km 0.15 Hudson & Ostro, Icarus 193 (2008) 20-38  
rotation period rot_per 5.22204 h n/a Asteroid Lightcurve DataBase (Rev. 2013-May-01) Published Reference List:
[Dunlap, J.L. (1974) Astron. J. 79, 324-332.]
[Michalowski, T.; Kwiatkowski, T.; Borczyk, W.; Pych, W. (1994) Acta Astronomica 44, 223-226.]
[Kwiatkowski, T. (1995) Astron. Astrophys. 294, 274-277.]
[Magnusson, P.; Dahlgren, M.; Barucci, M.A.; Jorda, L.; et al. (1996) Icarus 123, 227-244.]
[Hudson, R.S.; Ostro, S.J. (1999) Icarus 140, 369-378.]
[Kaasalainen, M.; Torppa, J.; Muinonen, K. (2001) Icarus 153, 37-51.]
[Higgins, D.; Pravec, P.; Kusnirak, P.; Hornoch, K.; Brinsfield, J.W.; Allen, B.; Warner, B.D. (2008) Minor Planet Bul. 35, 123-126.]
[Behrend, R. (2008) Observatoire de Geneve web site, http://obswww.unige.ch/~behrend/page_cou.html]
[Polishook, D. (2009) Minor Planet Bul. 36, 119-120.]
[Hamanowa, H.; Hamanowa, H. (2011) http://www2.ocn.ne.jp/~hamaten/astlcdata.htm]
[Skiff, B.A.; Bowell, E.; Koehn, B.W.; Sanborn, J.J.; McLelland, K.P.; Warner, B.D. (2012) Minor Planet Bul. 39, 111-130.]
geometric albedo albedo 0.3258   0.051 IRAS-A-FPA-3-RDR-IMPS-V6.0 IRAS observations used: 2
B-V BV .862 mag .034 EAR-A-5-DDR-UBV-MEAN-VALUES-V1.1 #obs=7; phase (min.=17.27, mean=33.74, max.=52.91) deg.
U-B UB .471 mag .053 EAR-A-5-DDR-UBV-MEAN-VALUES-V1.1 #obs=4; phase (min.=36.47, mean=37.14, max.=37.75) deg.
Tholen spectral type spec_T S   n/a EAR-A-5-DDR-TAXONOMY-V4.0 used 4 color indices; used ground-based radiometric albedo
SMASSII spectral type spec_B S   n/a EAR-A-5-DDR-TAXONOMY-V4.0 based on a high-resolution spectrum by Xu et al. (1995) or Bus and Binzel (2002)

1620 Geographos (1951 RA)          Discovered 1951-Sep-14 by Wilson, A. G. and Minkowski, R. at Palomar (675)
Reference: DISCOVERY.DBLast Updated: 2003-08-29

[ show close-approach data ]
Alternate Designations
 1951 RA = 1983 CY3 
Ephemeris | Orbit Diagram | Orbital Elements | Physical Parameters | Discovery Circumstances | Close-Approach Data ]
ABOUT SSD CREDITS/AWARDS PRIVACY/COPYRIGHT GLOSSARY LINKS
FirstGov 2013-May-25 17:39 UT
(server date/time)  
NASA Home Page
Site Manager:   Donald K. Yeomans
Webmaster  Alan B. Chamberlin